Flag for Switzerland Weather past 2 weeks in Wallisellen, Zurich, Switzerland

Now
42 °F

Quite cool.


Feels Like: 42 °F
Forecast: 37 / 57 °F
Wind: 2 mph from Northeast

Location: Zurich Town / Ville.

Current Time: Oct 24, 2014 at 11:00:12 AM

Latest Report: Oct 24, 2014 at 10:00 AM


Visibility: N/A

Pressure: 30.24 "Hg

Humidity: 90%

Dew point: 39 °F

Location of WallisellenLocation

Historic Weather in Wallisellen — Graph

°F

Wallisellen temperature yesterday

Maximum temperature yesterday: 48 °F (at 3:00 PM)
Minimum temperature yesterday: 41 °F (at 1:00 AM)
Average temperature yesterday: 44 °F

Past Weeks' High & Low Weather Summary

 TemperatureHumidityPressure
High72 °F (Oct 9, 5:00 PM)100% (Oct 18, 6:00 AM)30.34 "Hg (Oct 18, 6:00 AM)
Low37 °F (Oct 24, 5:00 AM)46% (Oct 9, 3:00 PM)29.74 "Hg (Oct 21, 7:00 PM)
Average56 °F85%30.01 "Hg
* Reported Oct 9 9:00 AM — Oct 24 9:00 AM, Wallisellen, Weather by CustomWeather, © 2014

Note: Actual official high and low records may vary slightly from our data, if they occured in-between our weather recording intervals... More about our weather records

Advertising

Wallisellen weather history for previous 24 hours

 ConditionsComfort  
Time TempWeatherWind HumidityBarometerVisibility
9:00 AM
Oct 24
41 °FQuite cool.2 mph90%30.24 "HgN/A
8:00 AM40 °FPartly sunny.2 mph93%30.23 "HgN/A
7:00 AM37 °FChilly.3 mph96%30.24 "HgN/A
6:00 AM38 °FChilly.1 mph95%30.25 "HgN/A
5:00 AM37 °FChilly.5 mph98%30.25 "HgN/A
4:00 AM38 °FChilly.3 mph95%30.26 "HgN/A
3:00 AM38 °FChilly.2 mph94%30.27 "HgN/A
2:00 AM40 °FQuite cool.2 mph90%30.27 "HgN/A
1:00 AM41 °FQuite cool.2 mph89%30.28 "HgN/A
12:00 AM41 °FQuite cool.3 mph89%30.28 "HgN/A
11:00 PM
Oct 23
45 °FQuite cool.3 mph83%30.28 "HgN/A
10:00 PM45 °FCool.3 mph79%30.27 "HgN/A
9:00 PM45 °FQuite cool.3 mph79%30.27 "HgN/A
8:00 PM46 °FCool.3 mph75%30.28 "HgN/A
7:00 PM46 °FCool.2 mph76%30.28 "HgN/A
6:00 PM46 °FCool.2 mph75%30.28 "HgN/A
5:00 PM47 °FCool.3 mph74%30.28 "HgN/A
4:00 PM48 °FCool.3 mph68%30.27 "HgN/A
3:00 PM48 °FCool.2 mph73%30.29 "HgN/A
2:00 PM46 °FOvercast.3 mph79%30.32 "HgN/A
1:00 PM46 °FCool.5 mph77%30.33 "HgN/A
12:00 PM45 °FQuite cool.6 mph77%30.34 "HgN/A
11:00 AM44 °FQuite cool.6 mph85%30.34 "HgN/A
Weather by CustomWeather, © 2014

See weather overviewHow to use our weather pages